Terminal Aerodrome Forecast
Issued by NWS

Home | Current Version | Previous Version | Text Only | Print | Product List | Glossary On
Versions: 1 2 3 4 5 6 7 8 9 10 11 12 13 14 15
000
FTUS44 KEPZ 020500
TAFLRU
TAF
KLRU 020520Z 0206/0306 28011KT P6SM SKC
     FM021200 32012G20KT P6SM SKC
     FM021900 24010KT P6SM SKC
     FM030200 33005KT P6SM SKC=

USA.gov is the U.S. government's official web portal to all federal, state and local government web resources and services.